Location: Deuil
(48.9767°N, 2.3272°E)
Time: 02:39:18
(UTC+00:00)

Cosmos 1934 Rocket - Pass Details

Date: 24 October 2021
Orbit: 938 x 998 km, 83.0° (Epoch: 05 December)

Event Time Altitude Azimuth Distance (km) Brightness Sun altitude
Rises 17:26:07 0° 169° (S) 3,611 7.0 -7.6°
Reaches altitude 10° 17:28:40 10° 165° (SSE) 2,664 6.2 -8.0°
Maximum altitude 17:34:30 50° 91° (E) 1,183 4.1 -9.0°
Drops below altitude 10° 17:40:19 10° 18° (NNE) 2,665 6.1 -9.9°
Sets 17:42:52 0° 14° (NNE) 3,613 6.8 -10.3°
